Miscellaneous Local Product
Issued by NWS Hastings, NE

Home | Current Version | Previous Version | Text Only | Print | Product List | Glossary Off
Versions: 1 2 3 4 5 6 7 8 9 10 11 12 13 14 15 16 17 18 19 20 21 22 23 24 25 26 27 28 29 30 31 32 33 34 35 36 37 38 39 40 41 42 43 44 45 46 47 48 49 50

000
AXUS43 KGID 201602
MISGRI

GID CWA HOURLY WEATHER ROUNDUP
NATIONAL WEATHER SERVICE HASTINGS NE
1000 AM CST MON FEB 20 2017

NOTE: "FAIR" INDICATES FEW OR NO CLOUDS BELOW 12,000 FEET WITH NO
SIGNIFICANT WEATHER AND/OR OBSTRUCTIONS TO VISIBILITY.

...SOUTH CENTRAL NEBRASKA...

CITY           SKY/WX    TMP DP  RH WIND       PRES   REMARKS
GRAND ISLAND   CLOUDY    57  54  89 SW16      29.73R
HASTINGS       CLOUDY    56  53  90 SW10      29.75R
KEARNEY        CLOUDY    54  43  66 W14       29.75R
ORD            CLOUDY    53  42  66 NW10      29.71R
YORK           CLOUDY    57  57 100 S17       29.73R
AURORA         CLOUDY    57  55  95 S14       29.71S
LEXINGTON      SUNNY     54  31  42 NW24G31   29.77R
HOLDREGE       CLOUDY    53  36  52 NW10      29.77R
HEBRON         CLOUDY    59  56  88 S13G20    29.76S

...NEBRASKA PANHANDLE...

CITY           SKY/WX    TMP DP  RH WIND       PRES   REMARKS
CHADRON        SUNNY     46  30  53 W14       29.90R
ALLIANCE       SUNNY     47  27  45 NW18G26   29.88R
SCOTTSBLUFF    SUNNY     44  22  41 W14       29.94R
SIDNEY         SUNNY     47  22  37 NW26G38   29.93R

...WESTERN AND NORTH CENTRAL NEBRASKA...

CITY           SKY/WX    TMP DP  RH WIND       PRES   REMARKS
VALENTINE      CLOUDY    49  36  61 NW16G29   29.78R
AINSWORTH      LGT RAIN  47  42  81 NW25G36   29.78R
ONEILL         PTSUNNY   53  43  69 W15G22    29.71R
BROKEN BOW     MOSUNNY   53  40  61 NW21G33   29.76R
IMPERIAL       SUNNY     50  20  30 NW30G39   29.88R
NORTH PLATTE   CLOUDY    51  37  58 NW18G25   29.83R
MCCOOK         SUNNY     54  29  38 NW30G40   29.82R

...EASTERN NEBRASKA...

CITY           SKY/WX    TMP DP  RH WIND       PRES   REMARKS
NORFOLK        PTSUNNY   58  54  86 S12       29.69R
SO SIOUX CITY  CLOUDY    58  56  93 S13       29.70F FOG
TEKAMAH        CLOUDY    59  56  89 S14       29.71F
COLUMBUS       CLOUDY    57  54  88 S13G21    29.73R
ALBION         CLOUDY    58  53  84 SW9       29.70S HAZE
OMAHA EPPLEY   LGT RAIN  58  55  90 S13       29.74F FOG
MILLARD        DRIZZLE   60  59  96 SE9       29.75S
LINCOLN        CLOUDY    59  57  93 S17       29.75R
NEBRASKA CITY  LGT RAIN  58  58 100 S13       29.76F
BEATRICE       CLOUDY    59  57  96 S14       29.76R
FALLS CITY     CLOUDY    59  56  89 S14       29.78S

...NORTHERN KANSAS...

CITY           SKY/WX    TMP DP  RH WIND       PRES   REMARKS
GOODLAND       SUNNY     53  18  25 NW35G41   29.89R
HILL CITY      MOSUNNY   57  34  41 NW18G25   29.82R
NORTON         SUNNY     55  25  30 W24G30    29.80R
SMITH CENTER   SUNNY     52  46  82 W9        29.78R
HAYS           PTSUNNY   55  42  61 NW15G21   29.81R
RUSSELL        PTSUNNY   53  48  83 W10       29.78R
CONCORDIA      PTSUNNY   58  56  93 S13       29.76F
SALINA         CLOUDY    60  55  83 S12       29.78F
TOPEKA         CLOUDY    62  57  83 S8        29.80S



USA.gov is the U.S. government's official web portal to all federal, state and local government web resources and services.